STARLINK-5752, 55577

Orbit data source: Space-Track

STARLINK-5752, 55577 is a payload satellite owned by SpaceX/Seattle (US) in LEO that was launched on Sun, 12 Feb 2023 UTC via an FALCON 9 launch vehicle from the Air Force Eastern Test Range (AFETR). Payload-class satellites include a variety of spacecraft equipped with specific instruments for various scientific and technological missions. These include communications satellites like Starlink; space stations such as the ISS; scientific satellites like the Hubble; Earth observation satellites from companies like Planet Labs, Umbra, and HawkEye 360; GPS; miniature CubeSats for education and research; and military/defense satellites.

Loading next visibility...
Identifier
55577, 2023-020J
Orbit
LEO
Country
Flag of USUS
Related business
Manufacturer
SpaceX/Seattle
Mission
Operational Commercial Communications
Bus & Motor
STARLINK, Unknown motor
Mass
305 kg wet, ~290 kg dry
Launch date (UTC)
2023-02-12 (4 years ago)
Launch vehicle
FALCON 9
Launch site
Air Force Eastern Test Range (AFETR)
Object type
Payload
Rocket body
Debris
Shape & HBR
Box + 1 Pan, 10.1 m
Radar Cross Section
13.562 m², Large (>1 m²)

Expand to show TLE details & history
Last TLE update: 4 hours ago

TLE from 4 hours ago
0 STARLINK-5752
1 55577U 23020J   26264.28364757  .00001077  00000-0  48675-4 0  9997
2 55577  43.0047 340.7462 0001754 270.8308  89.2343 15.27575770198823
Epoch: 2026-09-21T06:48Z
TLE epoch observation values (Epoch: 2026-09-21T06:48:27.150Z)
Latitude
0.00002°
Longitude
-121.5326°
Altitude
482.822 km
Speed
7.626 km/s
True Right ascension
22h 42m 59s
True Declination
0° 00' 00"
Sunlit
Object was in full shadow at epoch
Visualization orbit readout
Latitude
Unknown
Longitude
Unknown
Altitude
Unknown
Speed
Unknown
Apparent Right ascension
Unknown
Apparent Declination
Unknown
Sunlit
N/A
Visualization observer readout
Local Sidereal Time
04:02:07
Azimuth
Unknown
Elevation
Unknown
Doppler factor
Unknown
Orbital elements
Apogee altitude
486.21 km
Perigee altitude
483.802 km
Semi-major axis
6,863.143 km
Eccentricity
0.00018
Inclination
43.0047°
RAAN
340.7462°
Arg. of periapsis
270.8308°
True anomaly
89.2544°
Mean anomaly
89.2343°
Eccentric anomaly
89.24435°
Mean motion
3.81732 °/min
Orbital period
94.31 mins
BSTAR
0.000048675
Loading maneuver chart data...
Computing Atmospheric mass density...
Loading historical data...
Loading historical data...
Loading historical data...
Loading historical data...
Loading historical data...
Loading historical data...
Loading historical data...

Documentation

Showing up to 5 results
|